TMSAT-1 - Orbit

View from above orbital plane
View from above orbital plane
View from above satellite
View from above satellite

Ground track
Ground track

The orbit data is extracted from the following two-line orbital elements,

1 25396U 98043C   13140.49544329  .00000116  00000-0  68388-4 0  5720
2 25396 098.3827 114.1855 0002497 022.6483 124.4315 14.24015689772260
Epoch (UTC): 20 May 2013 11:53:26
Eccentricity: 0.0002497
inclination: 98.3827°
perigee height: 810 km
apogee height: 813 km
right ascension of ascending node: 114.1855°
argument of perigee: 22.6483°
revolutions per day: 14.24015689
mean anomaly at epoch: 124.4315°
orbit number at epoch: 77226

The dashed part of the orbit path shows where the satellite is in the earth's shadow,  

Developed and maintained by Chris Peat, Heavens-Above GmbH. Please read the updated FAQ before sending e-mail. Imprint. DLR